Dalhart, TX

10:47 PM CDT on May 22, 2018 (GMT -0500)
Dalhart Municipal

Weather History for KDHT - July, 2013

Change the Weather History Date:

Saturday, July 27, 2013

  Actual Average Record
Temperature  
Mean Temperature 76 °F 77 °F  
Max Temperature 94 °F 91 °F 105 °F (2011)
Min Temperature 57 °F 62 °F 53 °F (2005)
Degree Days  
Heating Degree Days 0 0  
Month to date heating degree days 0 0  
Since 1 June heating degree days 0 12  
Since 1 July heating degree days 0 0  
Cooling Degree Days 11 12  
Month to date cooling degree days 345 320  
Year to date cooling degree days 906 632  
Since 1 June cooling degree days 752 560  
Growing Degree Days 25 (Base 50)    
Moisture  
Dew Point 52 °F    
Average Humidity 51    
Maximum Humidity 80    
Minimum Humidity 21    
Precipitation  
Precipitation 0.00 in 0.09 in 1.38 in (1998)
Month to date precipitation 1.20 2.39  
Year to date precipitation 3.13 10.10  
Snow  
Snow 0.00 in 0.00 in 0.00 in ()
Month to date snowfall 0.0 0.0  
Since 1 June snowfall 0.0 0.0  
Since 1 July snowfall 0.0 0.0  
Snow Depth 0.00 in    
Sea Level Pressure  
Sea Level Pressure 29.94 in    
Wind  
Wind Speed 17 mph (South)    
Max Wind Speed 31 mph    
Max Gust Speed 38 mph    
Visibility 10 miles    
Events      
T = Trace of Precipitation, MM = Missing Value Source: NWS Daily Summary

Daily Weather History Graph

Daily Weather History Graph

Search for Another Location

Airport or City:

Astronomy

Jul. 27, 2013 Rise Set
Actual Time 6:53 AM CDT 8:59 PM CDT
Civil Twilight 6:25 AM CDT 9:27 PM CDT
Nautical Twilight 5:50 AM CDT 10:02 PM CDT
Astronomical Twilight 5:12 AM CDT 10:39 PM CDT
Moon No Moon Rise 12:23 PM CDT (7/27)
Length of Visible Light 15h 02m
Length of Day
14h 05m
Waning Gibbous, 70% of the Moon is Illuminated
Jul 27
Waning Gibbous
Jul 29
Last Quarter
Aug 6
New
Aug 14
First Quarter
Aug 20
Full

Hourly Weather History & Observations

Time (CDT) Temp. Heat Index Dew Point Humidity Pressure Visibility Wind Dir Wind Speed Gust Speed Precip Events Conditions
12:53 AM 68.0 °F - 52.0 °F 56% 30.12 in 10.0 mi ESE 8.1 mph - N/A   Clear
1:53 AM 66.0 °F - 51.1 °F 59% 30.10 in 10.0 mi South 5.8 mph - N/A   Clear
2:53 AM 66.0 °F - 52.0 °F 60% 30.08 in 10.0 mi SE 5.8 mph - N/A   Clear
3:53 AM 61.0 °F - 53.1 °F 75% 30.06 in 10.0 mi SSW 6.9 mph - N/A   Clear
4:53 AM 60.1 °F - 53.1 °F 78% 30.05 in 10.0 mi South 6.9 mph - N/A   Clear
5:53 AM 59.0 °F - 53.1 °F 81% 30.05 in 10.0 mi SSW 4.6 mph - N/A   Clear
6:53 AM 59.0 °F - 53.1 °F 81% 30.06 in 10.0 mi SW 6.9 mph - N/A   Clear
7:53 AM 63.0 °F - 55.0 °F 75% 30.05 in 10.0 mi South 6.9 mph - N/A   Clear
8:53 AM 73.0 °F - 57.9 °F 59% 30.02 in 10.0 mi SSW 15.0 mph - N/A   Clear
9:53 AM 78.1 °F - 57.0 °F 48% 30.01 in 10.0 mi SSW 19.6 mph - N/A   Clear
10:53 AM 81.0 °F 80.8 °F 55.9 °F 42% 29.98 in 10.0 mi SSW 20.7 mph - N/A   Clear
11:53 AM 84.0 °F 83.3 °F 57.0 °F 40% 29.96 in 10.0 mi SSW 18.4 mph - N/A   Clear
12:53 PM 88.0 °F 85.7 °F 53.1 °F 30% 29.94 in 10.0 mi SSW 21.9 mph 29.9 mph N/A   Clear
1:53 PM 91.0 °F - 50.0 °F 24% 29.91 in 10.0 mi SSW 21.9 mph 32.2 mph N/A   Clear
2:53 PM 91.0 °F - 50.0 °F 24% 29.88 in 10.0 mi SSW 23.0 mph 33.4 mph N/A   Clear
3:53 PM 91.0 °F - 46.9 °F 22% 29.87 in 10.0 mi South 23.0 mph 35.7 mph N/A   Clear
4:53 PM 91.0 °F - 46.9 °F 22% 29.84 in 10.0 mi SSW 23.0 mph 34.5 mph N/A   Clear
5:53 PM 91.9 °F - 50.0 °F 24% 29.82 in 10.0 mi SSW 24.2 mph 32.2 mph N/A   Clear
6:53 PM 91.0 °F - 51.1 °F 25% 29.80 in 10.0 mi SSW 25.3 mph 32.2 mph N/A   Clear
7:53 PM 88.0 °F - 50.0 °F 27% 29.79 in 10.0 mi SSW 21.9 mph 29.9 mph N/A   Clear
8:53 PM 82.9 °F - 50.0 °F 32% 29.79 in 10.0 mi South 24.2 mph - N/A   Clear
9:53 PM 81.0 °F - 48.9 °F 33% 29.80 in 10.0 mi South 23.0 mph 32.2 mph N/A   Clear
10:53 PM 78.1 °F - 51.1 °F 39% 29.82 in 10.0 mi South 20.7 mph - N/A   Clear
11:53 PM 75.9 °F - 50.0 °F 40% 29.83 in 10.0 mi South 18.4 mph - N/A   Clear